• en France
  • Liste des pays
  • À 7 jours
  • Température de l'eau
  • Carte satellitaire
  • Carte météo
  • Widgets météo
  • user-avatar
    Se connecter

    Météo par heure à Hoeryŏng

    Ce jour, 20 Février, Mardi

    Heure Température Précipitation Vent Pression Humidité
    00:00 +1°C° 0 mm 1 m/s 761 mmHg 58%
    01:00 0°C° 0 mm 1 m/s 761 mmHg 57%
    02:00 0°C° 0 mm 1 m/s 760 mmHg 53%
    03:00 0°C° 0 mm 1 m/s 760 mmHg 53%
    04:00 0°C° 0 mm 1 m/s 760 mmHg 53%
    05:00 0°C° 0 mm 1 m/s 760 mmHg 53%
    06:00 0°C° 0 mm 1 m/s 761 mmHg 49%
    07:00 +1°C° 0 mm 1 m/s 761 mmHg 45%
    08:00 +1°C° 0 mm 1 m/s 761 mmHg 39%
    09:00 +1°C° 0 mm 2 m/s 761 mmHg 33%
    10:00 +3°C° 0 mm 2 m/s 761 mmHg 27%
    11:00 +3°C° 0 mm 3 m/s 761 mmHg 21%
    12:00 +3°C° 0 mm 3 m/s 760 mmHg 21%
    13:00 +3°C° 0 mm 4 m/s 760 mmHg 22%
    14:00 +3°C° 0 mm 4 m/s 759 mmHg 23%
    15:00 +1°C° 0 mm 4 m/s 760 mmHg 25%
    16:00 0°C° 0 mm 4 m/s 760 mmHg 28%
    17:00 0°C° 0 mm 4 m/s 760 mmHg 30%
    18:00 -1°C° 0 mm 4 m/s 760 mmHg 32%
    19:00 -2°C° 0 mm 4 m/s 761 mmHg 34%
    20:00 -2°C° 0 mm 2 m/s 760 mmHg 36%
    21:00 -2°C° 0 mm 3 m/s 761 mmHg 37%
    22:00 -4°C° 0 mm 3 m/s 761 mmHg 37%
    23:00 -4°C° 0 mm 3 m/s 761 mmHg 37%

    Demain, 21 Février, Mercredi

    Heure Température Précipitation Vent Pression Humidité
    00:00 -4°C° 0 mm 3 m/s 761 mmHg 37%
    01:00 -4°C° 0 mm 2 m/s 761 mmHg 36%
    02:00 -4°C° 0 mm 2 m/s 761 mmHg 36%
    03:00 -4°C° 0 mm 2 m/s 761 mmHg 35%
    04:00 -4°C° 0 mm 2 m/s 761 mmHg 34%
    05:00 -4°C° 0 mm 2 m/s 762 mmHg 33%
    06:00 -4°C° 0 mm 2 m/s 762 mmHg 31%
    07:00 -4°C° 0 mm 2 m/s 762 mmHg 28%
    08:00 -4°C° 0 mm 3 m/s 762 mmHg 26%
    09:00 -2°C° 0 mm 3 m/s 762 mmHg 23%
    10:00 -1°C° 0 mm 3 m/s 762 mmHg 21%
    11:00 -1°C° 0 mm 4 m/s 762 mmHg 18%
    12:00 0°C° 0 mm 4 m/s 761 mmHg 18%
    13:00 0°C° 0 mm 4 m/s 761 mmHg 18%
    14:00 0°C° 0 mm 4 m/s 760 mmHg 18%
    15:00 0°C° 0 mm 4 m/s 760 mmHg 20%
    16:00 0°C° 0 mm 3 m/s 760 mmHg 23%
    17:00 -1°C° 0 mm 3 m/s 760 mmHg 25%
    18:00 -1°C° 0 mm 2 m/s 760 mmHg 28%
    19:00 -2°C° 0 mm 2 m/s 761 mmHg 31%
    20:00 -3°C° 0 mm 2 m/s 761 mmHg 33%
    21:00 -1°C° 0 mm 1 m/s 761 mmHg 36%
    22:00 -1°C° 0 mm 1 m/s 761 mmHg 38%
    23:00 -1°C° 0 mm 1 m/s 761 mmHg 40%

    Après-demain, 22 Février, Jeudi

    Heure Température Précipitation Vent Pression Humidité
    00:00 -1°C° 0 mm 1 m/s 761 mmHg 42%
    01:00 -1°C° 0 mm 1 m/s 761 mmHg 44%
    02:00 -1°C° 0 mm 1 m/s 761 mmHg 45%
    03:00 -1°C° 0 mm 1 m/s 761 mmHg 47%
    04:00 -1°C° 0 mm 1 m/s 760 mmHg 49%
    05:00 -2°C° 0 mm 1 m/s 760 mmHg 51%
    06:00 -1°C° 0 mm 1 m/s 760 mmHg 49%
    07:00 0°C° 0 mm 1 m/s 760 mmHg 46%
    08:00 0°C° 0 mm 1 m/s 760 mmHg 44%
    09:00 +1°C° 0 mm 2 m/s 760 mmHg 42%
    10:00 +2°C° 0 mm 3 m/s 759 mmHg 41%
    11:00 +3°C° 0 mm 4 m/s 759 mmHg 39%
    12:00 +3°C° 0,1 mm 5 m/s 758 mmHg 41%
    13:00 +3°C° 0,1 mm 6 m/s 758 mmHg 43%
    14:00 +3°C° 0,1 mm 7 m/s 757 mmHg 45%
    15:00 +3°C° 0 mm 6 m/s 756 mmHg 47%
    16:00 +2°C° 0 mm 6 m/s 756 mmHg 50%
    17:00 +1°C° 0 mm 5 m/s 756 mmHg 52%
    18:00 +1°C° 1 mm 5 m/s 755 mmHg 61%
    19:00 +1°C° 1 mm 5 m/s 755 mmHg 70%
    20:00 0°C° 1 mm 5 m/s 755 mmHg 79%
    21:00 0°C° 0,4 mm 5 m/s 756 mmHg 74%
    22:00 -1°C° 0,4 mm 5 m/s 756 mmHg 70%
    23:00 -2°C° 0,4 mm 4 m/s 756 mmHg 65%

    23 Février, Vendredi

    Heure Température Précipitation Vent Pression Humidité
    00:00 -2°C° 0 mm 4 m/s 756 mmHg 64%
    01:00 -3°C° 0 mm 4 m/s 757 mmHg 63%
    02:00 -4°C° 0 mm 4 m/s 757 mmHg 62%
    03:00 -4°C° 0 mm 3 m/s 757 mmHg 62%
    04:00 -3°C° 0 mm 2 m/s 757 mmHg 62%
    05:00 -4°C° 0 mm 2 m/s 758 mmHg 62%
    06:00 -1°C° 0 mm 1 m/s 758 mmHg 57%
    07:00 0°C° 0 mm 1 m/s 759 mmHg 53%
    08:00 +1°C° 0 mm 1 m/s 759 mmHg 48%
    09:00 +2°C° 0 mm 1 m/s 759 mmHg 42%
    10:00 +3°C° 0 mm 2 m/s 759 mmHg 37%
    11:00 +4°C° 0 mm 2 m/s 759 mmHg 31%
    12:00 +4°C° 0 mm 4 m/s 759 mmHg 32%
    13:00 +5°C° 0 mm 5 m/s 758 mmHg 33%
    14:00 +4°C° 0 mm 6 m/s 758 mmHg 33%
    15:00 +5°C° 0 mm 5 m/s 758 mmHg 39%
    16:00 +3°C° 0 mm 5 m/s 758 mmHg 45%
    17:00 +3°C° 0 mm 4 m/s 758 mmHg 51%
    18:00 +1°C° 0 mm 4 m/s 759 mmHg 56%
    19:00 +1°C° 0 mm 3 m/s 760 mmHg 61%
    20:00 0°C° 0 mm 3 m/s 761 mmHg 66%
    21:00 -1°C° 0 mm 3 m/s 761 mmHg 63%
    22:00 -1°C° 0 mm 3 m/s 762 mmHg 60%
    23:00 -2°C° 0 mm 3 m/s 762 mmHg 57%

    24 Février, Samedi

    Heure Température Précipitation Vent Pression Humidité
    00:00 -2°C° 0 mm 3 m/s 763 mmHg 51%
    01:00 -4°C° 0 mm 3 m/s 763 mmHg 46%
    02:00 -4°C° 0 mm 3 m/s 763 mmHg 41%
    03:00 -5°C° 0 mm 3 m/s 764 mmHg 39%
    04:00 -5°C° 0 mm 3 m/s 764 mmHg 37%
    05:00 -6°C° 0 mm 3 m/s 765 mmHg 36%
    06:00 -4°C° 0 mm 2 m/s 765 mmHg 33%
    07:00 -4°C° 0 mm 2 m/s 766 mmHg 30%
    08:00 -3°C° 0 mm 2 m/s 766 mmHg 27%
    09:00 -2°C° 0 mm 2 m/s 766 mmHg 25%
    10:00 -1°C° 0 mm 2 m/s 766 mmHg 22%
    11:00 +1°C° 0 mm 2 m/s 766 mmHg 20%
    12:00 +2°C° 0 mm 2 m/s 766 mmHg 20%
    13:00 +2°C° 0 mm 2 m/s 765 mmHg 20%
    14:00 +1°C° 0 mm 3 m/s 765 mmHg 20%
    15:00 +2°C° 0 mm 2 m/s 765 mmHg 23%
    16:00 +1°C° 0 mm 2 m/s 765 mmHg 27%
    17:00 -1°C° 0 mm 2 m/s 765 mmHg 30%
    18:00 -2°C° 0 mm 2 m/s 765 mmHg 33%
    19:00 -2°C° 0 mm 2 m/s 765 mmHg 35%
    20:00 -1°C° 0 mm 1 m/s 765 mmHg 37%
    21:00 -1°C° 0 mm 1 m/s 765 mmHg 37%
    22:00 -1°C° 0 mm 1 m/s 765 mmHg 38%
    23:00 -1°C° 0 mm 1 m/s 765 mmHg 38%

    25 Février, Dimanche

    Heure Température Précipitation Vent Pression Humidité
    00:00 -2°C° 0 mm 1 m/s 765 mmHg 39%
    01:00 -2°C° 0 mm 1 m/s 765 mmHg 39%
    02:00 -2°C° 0 mm 1 m/s 765 mmHg 40%
    03:00 -2°C° 0 mm 1 m/s 765 mmHg 40%
    04:00 -2°C° 0 mm 1 m/s 765 mmHg 41%
    05:00 -2°C° 0 mm 1 m/s 765 mmHg 42%
    06:00 -2°C° 0 mm 1 m/s 765 mmHg 39%
    07:00 -1°C° 0 mm 1 m/s 765 mmHg 36%
    08:00 0°C° 0 mm 1 m/s 766 mmHg 34%
    09:00 +1°C° 0 mm 1 m/s 765 mmHg 30%
    10:00 +3°C° 0 mm 1 m/s 765 mmHg 26%
    11:00 +4°C° 0 mm 1 m/s 765 mmHg 22%
    12:00 +5°C° 0 mm 1 m/s 764 mmHg 21%
    13:00 +6°C° 0 mm 1 m/s 764 mmHg 20%
    14:00 +6°C° 0 mm 1 m/s 763 mmHg 19%
    15:00 +5°C° 0 mm 1 m/s 763 mmHg 23%
    16:00 +4°C° 0 mm 1 m/s 763 mmHg 27%
    17:00 +4°C° 0 mm 1 m/s 763 mmHg 30%
    18:00 +3°C° 0 mm 1 m/s 763 mmHg 32%
    19:00 +2°C° 0 mm 1 m/s 764 mmHg 33%
    20:00 +1°C° 0 mm 1 m/s 764 mmHg 35%
    21:00 +1°C° 0 mm 1 m/s 764 mmHg 36%
    22:00 +1°C° 0 mm 1 m/s 764 mmHg 36%
    23:00 +1°C° 0 mm 1 m/s 764 mmHg 37%
    Voir plus